Weather History for Bentonville, AR

Change the Weather History Date:

Thursday, March 14, 2013

  Actual Average Record
Temperature  
Mean Temperature 52 °F -  
Max Temperature 71 °F 57 °F 80 °F (1967)
Min Temperature 32 °F 34 °F 12 °F (1948)
Degree Days  
Heating Degree Days 14    
Growing Degree Days 2 (Base 50)    
Moisture  
Dew Point 30 °F    
Average Humidity 45    
Maximum Humidity 64    
Minimum Humidity 31    
Precipitation  
Precipitation 0.00 in - - ()
Sea Level Pressure  
Sea Level Pressure 30.21 in    
Wind  
Wind Speed 9 mph (South)    
Max Wind Speed 23 mph    
Max Gust Speed 29 mph    
Visibility 10 miles    
Events      
Averages and records for this station are not official NWS values.
T = Trace of Precipitation, MM = Missing Value Source: NWS Daily Summary

Daily Weather History Graph

Daily Weather History Graph

Search for Another Location

Airport:

Trip Planner

Search our weather history database for the weather conditions in past years. The results will help you decide how hot, cold, wet, or windy it might be!

Date:

Astronomy

Mar. 14, 2013 Rise Set
Actual Time 7:28 AM CDT 7:23 PM CDT
Civil Twilight 7:03 AM CDT 7:49 PM CDT
Nautical Twilight 6:33 AM CDT 8:19 PM CDT
Astronomical Twilight 6:03 AM CDT 8:49 PM CDT
Moon 8:49 AM CDT (3/14) 10:33 PM CDT (3/14)
Length of Visible Light 12h 46m
Length of Day
11h 54m
Waxing Crescent, 9% of the Moon is Illuminated
Mar 14
Waxing Crescent
Mar 19
First Quarter
Mar 27
Full
Apr 2
Last Quarter
Apr 10
New

Hourly Weather History & Observations

Time (CDT) Temp. Windchill Dew Point Humidity Pressure Visibility Wind Dir Wind Speed Gust Speed Precip Events Conditions
12:15 AM 35.6 °F 29.9 °F 19.4 °F 52% 30.34 in 10.0 mi SE 6.9 mph - N/A   Clear
12:35 AM 35.6 °F 29.9 °F 19.4 °F 52% 30.33 in 10.0 mi SE 6.9 mph - N/A   Clear
12:55 AM 35.6 °F 29.2 °F 19.4 °F 52% 30.33 in 10.0 mi SE 8.1 mph - N/A   Clear
1:15 AM 33.8 °F 27.7 °F 19.4 °F 56% 30.32 in 10.0 mi SE 6.9 mph - N/A   Clear
1:35 AM 35.6 °F 29.9 °F 19.4 °F 52% 30.31 in 10.0 mi SE 6.9 mph - N/A   Clear
1:55 AM 33.8 °F 27.7 °F 19.4 °F 56% 30.30 in 10.0 mi SE 6.9 mph - N/A   Clear
2:15 AM 35.6 °F 30.7 °F 19.4 °F 52% 30.30 in 10.0 mi SE 5.8 mph - N/A   Clear
2:35 AM 35.6 °F 29.9 °F 19.4 °F 52% 30.29 in 10.0 mi SE 6.9 mph - N/A   Clear
2:55 AM 35.6 °F 31.7 °F 19.4 °F 52% 30.29 in 10.0 mi SSE 4.6 mph - N/A   Clear
3:15 AM 35.6 °F 31.7 °F 19.4 °F 52% 30.30 in 10.0 mi SE 4.6 mph - N/A   Clear
3:35 AM 33.8 °F 29.6 °F 19.4 °F 56% 30.29 in 10.0 mi SE 4.6 mph - N/A   Clear
3:55 AM 33.8 °F 28.6 °F 19.4 °F 56% 30.28 in 10.0 mi SE 5.8 mph - N/A   Clear
4:15 AM 33.8 °F 29.6 °F 21.2 °F 60% 30.27 in 10.0 mi SE 4.6 mph - N/A   Clear
4:35 AM 33.8 °F 29.6 °F 19.4 °F 56% 30.26 in 10.0 mi SE 4.6 mph - N/A   Clear
4:55 AM 33.8 °F 29.6 °F 21.2 °F 60% 30.26 in 10.0 mi SE 4.6 mph - N/A   Clear
5:15 AM 35.6 °F 31.7 °F 21.2 °F 56% 30.27 in 10.0 mi SE 4.6 mph - N/A   Clear
5:35 AM 35.6 °F 31.7 °F 21.2 °F 56% 30.27 in 10.0 mi ESE 4.6 mph - N/A   Clear
5:55 AM 33.8 °F 28.6 °F 21.2 °F 60% 30.27 in 10.0 mi SE 5.8 mph - N/A   Clear
6:15 AM 33.8 °F 27.7 °F 21.2 °F 60% 30.27 in 10.0 mi SSE 6.9 mph - N/A   Clear
6:35 AM 33.8 °F 27.7 °F 21.2 °F 60% 30.26 in 10.0 mi SE 6.9 mph - N/A   Clear
6:55 AM 32.0 °F 25.6 °F 21.2 °F 64% 30.27 in 10.0 mi SSE 6.9 mph - N/A   Clear
7:15 AM 32.0 °F 25.6 °F 21.2 °F 64% 30.27 in 10.0 mi SSE 6.9 mph - N/A   Clear
7:35 AM 32.0 °F 27.5 °F 21.2 °F 64% 30.27 in 10.0 mi SSE 4.6 mph - N/A   Clear
7:55 AM 33.8 °F 28.6 °F 21.2 °F 60% 30.27 in 10.0 mi South 5.8 mph - N/A   Clear
8:15 AM 39.2 °F 34.2 °F 24.8 °F 56% 30.27 in 10.0 mi South 6.9 mph - N/A   Clear
8:35 AM 42.8 °F 38.6 °F 23.0 °F 46% 30.27 in 10.0 mi South 6.9 mph - N/A   Clear
8:55 AM 46.4 °F 42.9 °F 24.8 °F 43% 30.27 in 10.0 mi South 6.9 mph - N/A   Clear
9:15 AM 48.2 °F - 24.8 °F 40% 30.26 in 10.0 mi South 11.5 mph - N/A   Clear
9:35 AM 50.0 °F - 26.6 °F 40% 30.26 in 10.0 mi SSW 12.7 mph 17.3 mph N/A   Clear
9:55 AM 53.6 °F - 26.6 °F 35% 30.26 in 10.0 mi SSW 16.1 mph - N/A   Clear
10:15 AM 55.4 °F - 28.4 °F 36% 30.25 in 10.0 mi SSW 12.7 mph 19.6 mph N/A   Clear
10:35 AM 57.2 °F - 28.4 °F 33% 30.25 in 10.0 mi SW 13.8 mph 20.7 mph N/A   Clear
10:55 AM 59.0 °F - 30.2 °F 34% 30.25 in 10.0 mi SW 23.0 mph 28.8 mph N/A   Clear
11:15 AM 60.8 °F - 30.2 °F 31% 30.25 in 10.0 mi SW 19.6 mph 28.8 mph N/A   Clear
11:35 AM 60.8 °F - 30.2 °F 31% 30.25 in 10.0 mi SW 19.6 mph 25.3 mph N/A   Clear
11:55 AM 60.8 °F - 30.2 °F 31% 30.24 in 10.0 mi SW 19.6 mph 26.5 mph N/A   Clear
12:15 PM 60.8 °F - 32.0 °F 34% 30.24 in 10.0 mi SSW 16.1 mph 24.2 mph N/A   Clear
12:35 PM 62.6 °F - 33.8 °F 34% 30.23 in 10.0 mi SSW 18.4 mph 21.9 mph N/A   Clear
12:55 PM 62.6 °F - 33.8 °F 34% 30.23 in 10.0 mi SW 20.7 mph 26.5 mph N/A   Clear
1:15 PM 64.4 °F - 35.6 °F 34% 30.22 in 10.0 mi SW 18.4 mph 23.0 mph N/A   Clear
1:35 PM 64.4 °F - 33.8 °F 32% 30.20 in 10.0 mi SW 15.0 mph 25.3 mph N/A   Clear
1:55 PM 64.4 °F - 35.6 °F 34% 30.20 in 10.0 mi SW 16.1 mph 25.3 mph N/A   Clear
2:15 PM 64.4 °F - 35.6 °F 34% 30.18 in 10.0 mi SW 15.0 mph - N/A   Clear
2:35 PM 66.2 °F - 37.4 °F 35% 30.17 in 10.0 mi SW 18.4 mph 24.2 mph N/A   Clear
2:55 PM 66.2 °F - 37.4 °F 35% 30.16 in 10.0 mi SW 15.0 mph - N/A   Clear
3:15 PM 66.2 °F - 37.4 °F 35% 30.16 in 10.0 mi WSW 15.0 mph - N/A   Clear
3:35 PM 68.0 °F - 37.4 °F 33% 30.16 in 10.0 mi SW 17.3 mph - N/A   Clear
3:55 PM 68.0 °F - 37.4 °F 33% 30.15 in 10.0 mi WSW 13.8 mph 21.9 mph N/A   Clear
4:15 PM 69.8 °F - 39.2 °F 33% 30.15 in 10.0 mi WSW 11.5 mph - N/A   Clear
4:35 PM 69.8 °F - 39.2 °F 33% 30.14 in 10.0 mi WSW 15.0 mph - N/A   Clear
4:55 PM 69.8 °F - 39.2 °F 33% 30.13 in 10.0 mi SW 12.7 mph - N/A   Clear
5:15 PM 71.6 °F - 39.2 °F 31% 30.13 in 10.0 mi SW 11.5 mph 18.4 mph N/A   Clear
5:35 PM 69.8 °F - 39.2 °F 33% 30.13 in 10.0 mi SW 13.8 mph 19.6 mph N/A   Clear
5:55 PM 69.8 °F - 39.2 °F 33% 30.12 in 10.0 mi SW 11.5 mph - N/A   Clear
6:15 PM 69.8 °F - 39.2 °F 33% 30.12 in 10.0 mi SW 11.5 mph 17.3 mph N/A   Clear
6:35 PM 68.0 °F - 39.2 °F 35% 30.11 in 10.0 mi SW 12.7 mph - N/A   Clear
6:55 PM 66.2 °F - 39.2 °F 37% 30.11 in 10.0 mi SW 8.1 mph - N/A   Clear
7:15 PM 64.4 °F - 39.2 °F 40% 30.11 in 10.0 mi SW 10.4 mph 17.3 mph N/A   Clear
7:35 PM 64.4 °F - 37.4 °F 37% 30.12 in 10.0 mi WSW 6.9 mph - N/A   Clear
7:55 PM 60.8 °F - 37.4 °F 42% 30.12 in 10.0 mi SW 4.6 mph - N/A   Clear
8:15 PM 60.8 °F - 37.4 °F 42% 30.10 in 10.0 mi SSW 5.8 mph - N/A   Clear
8:35 PM 60.8 °F - 37.4 °F 42% 30.10 in 10.0 mi SSW 4.6 mph - N/A   Clear
8:55 PM 57.2 °F - 37.4 °F 48% 30.11 in 10.0 mi SSW 4.6 mph - N/A   Clear
9:15 PM 55.4 °F - 37.4 °F 51% 30.11 in 10.0 mi South 5.8 mph - N/A   Clear
9:35 PM 57.2 °F - 37.4 °F 48% 30.12 in 10.0 mi SSW 5.8 mph - N/A   Clear
9:55 PM 57.2 °F - 37.4 °F 48% 30.12 in 10.0 mi South 4.6 mph - N/A   Clear
10:15 PM 55.4 °F - 37.4 °F 51% 30.12 in 10.0 mi South 5.8 mph - N/A   Clear
10:35 PM 55.4 °F - 37.4 °F 51% 30.12 in 10.0 mi South 6.9 mph - N/A   Clear
10:55 PM 55.4 °F - 39.2 °F 54% 30.12 in 10.0 mi South 8.1 mph - N/A   Clear
11:15 PM 55.4 °F - 39.2 °F 54% 30.12 in 10.0 mi South 8.1 mph - N/A   Clear
11:35 PM 55.4 °F - 39.2 °F 54% 30.12 in 10.0 mi South 5.8 mph - N/A   Clear
11:55 PM 55.4 °F - 39.2 °F 54% 30.12 in 10.0 mi SSW 6.9 mph - N/A   Clear